Weather in Novy Bug

Ukraine / Mykolaiv District     47˚41′02″N   32˚30′27″E
temp.,
°C
wind,
m/s
gust,
m/s
humid.,
%
clouds,
%
prec.,
mm/h
press.,
hPa
HPBL,
m
3 december, thu
thu323:00+1˚e478799 0.0 1027407
02:00+2˚e478799 0.1 1026362
05:00+2˚ene4681100 0.0 1026332
08:00+2˚e4781100 0.0 1026331
11:00+4˚e578298 0.0 1026412
14:00+6˚ese587683 0.0 1024449
17:00+5˚e598085 0.0 1024404
20:00+5˚ese5108291 0.0 1024452
4 december, fri
fri423:00+4˚ese598293 0.0 1024433
02:00+4˚ese598496 0.0 1024372
05:00+3˚ese598970 0.0 1023352
08:00+3˚ese6109177 0.0 1025363
11:00+4˚ese698199 0.0 1024440
14:00+4˚ese6880100 0.0 1024450
17:00+4˚e5118472 0.0 1024417
20:00+3˚ese6138937 0.0 1025434
5 december, sat
sat523:00+2˚ese6129234 0.0 1025431
02:00+3˚ese698959 0.0 1026459
05:00+3˚ese71088100 0.0 1026515
08:00+3˚ese71084100 0.0 1027545
11:00+3˚e6874100 0.0 1027540
14:00+4˚e696868 0.0 1027538
17:00+2˚e511770 0.0 1028516
20:00+1˚e511760 0.0 1029452
6 december, sun
sun623:00e511780 0.0 1029488
02:00−1˚e511580 0.0 1030394
05:00−3˚e612500 0.0 1030374
08:00−3˚e613450 0.0 1031390
11:00+1˚e711320 0.0 1031537
14:00+2˚e711290 0.0 1029646
17:00−1˚e614360 0.0 1030518
20:00−2˚e714390 0.0 1030491
7 december, mon
mon723:00−3˚e713460 0.0 1030489
02:00−4˚e714540 0.0 1030499
05:00−5˚e713530 0.0 1030497
08:00−5˚e713520 0.0 1030521
11:00−2˚e812540 0.0 1030768
14:00−1˚e8126245 0.0 1029772
17:00e71364100 0.0 1029744
20:00−1˚e81468100 0.0 1028749